Location: Aldenham
(51.6667°N, 0.3500°W)
Time: 12:38:53
(UTC+00:00)

A-11 Canister half - Pass Details

Date: 23 February 2026
Orbit: 1513 x 1686 km, 47.2° (Epoch: 17 March)

Event Time Altitude Azimuth Distance (km) Brightness Sun altitude
Rises 22:37:54 0° 267° (W) 4,938 12.0 -43.5°
Reaches altitude 10° 22:41:06 10° 265° (W) 3,942 11.3 -43.8°
Enters shadow 22:45:51 32° 258° (WSW) 2,568 10.1 -44.1°
Maximum altitude 22:51:07 69° 185° (S) 1,748 - -44.6°
Drops below altitude 10° 23:00:50 10° 105° (ESE) 3,829 - -45.3°
Sets 23:03:54 0° 103° (ESE) 4,791 - -45.5°
